{"data":{"norad_id":68258,"epoch":"2026-05-24T15:42:39.314880Z","epoch_age_seconds":107973,"freshness":"FRESH","line1":"1 68258U 26054AC  26144.65462170  .00012739  00000+0  44145-3 0  9996","line2":"2 68258  53.1577 303.9536 0000894  48.8936 311.2141 15.30201826 10627","mean_motion":15.30201826,"eccentricity":8.94e-5,"inclination_deg":53.1577,"raan_deg":303.9536,"arg_perigee_deg":48.8936,"mean_anomaly_deg":311.2141,"bstar":0.00044145,"rev_number":1062,"period_min":94.10523340991,"perigee_km":474.5969281303,"apogee_km":475.82230650547,"semimajor_km":6853.3466173179,"source":"CELESTRAK","updated_at":"2026-05-25T13:38:21.888609Z"}}